ONEWEB-0701, 61607

Orbit data source: Space-Track

ONEWEB-0701, 61607 is a payload satellite owned by Eut. One Web (UK) in LEO that was launched on Sun, 20 Oct 2024 UTC via an FALCON 9 launch vehicle from the Air Force Western Test Range (AFWTR). Payload-class satellites include a variety of spacecraft equipped with specific instruments for various scientific and technological missions. These include communications satellites like Starlink; space stations such as the ISS; scientific satellites like the Hubble; Earth observation satellites from companies like Planet Labs, Umbra, and HawkEye 360; GPS; miniature CubeSats for education and research; and military/defense satellites.

Loading next visibility...
Identifier
61607, 2024-188P
Orbit
LEO
Country
Flag of UKUK
Related business
Manufacturer
One Web
Mission
Operational Commercial Communications
Bus & Motor
ARROW, Unknown motor
Mass
148 kg wet, ~140 kg dry
Launch date (UTC)
2024-10-20 (1 year ago)
Launch vehicle
FALCON 9
Launch site
Air Force Western Test Range (AFWTR)
Object type
Payload
Rocket body
Debris
Shape & HBR
Trap Box + 2 Pan, 6.7 m
Radar Cross Section
3.464 m², Large (>1 m²)

Expand to show TLE details & history
Last TLE update: 9 hours ago

TLE from 9 hours ago
0 ONEWEB-0701
1 61607U 24188P   25352.49556512 -.00000463  00000-0 -13617-2 0  9992
2 61607  87.8814  72.2836 0001159  76.8781 283.2476 13.10374418 59647
Epoch: 2025-12-18T11:53Z
TLE epoch observation values (Epoch: 2025-12-18T11:53:36.826Z)
Latitude
0.00002°
Longitude
166.52991°
Altitude
1,224.397 km
Speed
7.242 km/s
True Right ascension
04h 49m 08s
True Declination
0° 00' 00"
Sunlit
Object was in full shadow at epoch
Visualization orbit readout
Latitude
Unknown
Longitude
Unknown
Altitude
Unknown
Speed
Unknown
Apparent Right ascension
Unknown
Apparent Declination
Unknown
Sunlit
N/A
Visualization observer readout
Local Sidereal Time
20:04:40
Azimuth
Unknown
Elevation
Unknown
Doppler factor
Unknown
Orbital elements
Apogee altitude
1,219.711 km
Perigee altitude
1,217.95 km
Semi-major axis
7,596.968 km
Eccentricity
0.00012
Inclination
87.8814°
RAAN
72.2836°
Arg. of periapsis
76.8781°
True anomaly
283.23467°
Mean anomaly
283.2476°
Eccentric anomaly
283.24114°
Mean motion
3.2778 °/min
Orbital period
109.83 mins
BSTAR
-0.0013617
Loading maneuver chart data...
Computing Atmospheric mass density...
Loading historical data...
Loading historical data...
Loading historical data...
Loading historical data...
Loading historical data...
Loading historical data...
Loading historical data...

Documentation

Showing up to 5 results
|